Regional Weather Roundup
Issued by NWS

Home | Current Version | Previous Version | Text Only | Print | Product List | Glossary On
Versions: 1 2 3 4 5 6 7 8 9 10 11 12 13 14 15 16 17 18 19 20 21 22 23 24 25 26 27 28 29 30 31 32 33 34 35 36 37 38 39 40 41 42 43 44 45 46 47 48 49 50
000
ASUS45 KBOU 081907
RWRCO

WEATHER ROUNDUP FOR COLORADO
NATIONAL WEATHER SERVICE DENVER/BOULDER CO
1200 PM MST MON FEB 08 2016

NOTE: "FAIR" INDICATES FEW OR NO CLOUDS BELOW 12000 FEET WITH NO
SIGNIFICANT WEATHER AND/OR OBSTRUCTIONS TO VISIBILITY.

COZ001>005-013-030-031-082000-
...NORTHWEST COLORADO...

CITY           SKY/WX    TMP DP  RH WIND       PRES   REMARKS
CRAIG          CLOUDY    16  10  77 S3        30.60F
HAYDEN         CLOUDY    21  12  68 NE7       30.58F WCI  13
MEEKER         CLOUDY    26  16  65 CALM      30.58F
MOUNT WERNER   NOT AVBL
STEAMBOAT SPGS CLOUDY    23  13  67 CALM      30.58F
WALDEN         CLOUDY    28  18  64 NE3       30.52F
$$

COZ006>008-011-082000-
...WEST CENTRAL VALLEYS...

CITY           SKY/WX    TMP DP  RH WIND       PRES   REMARKS
GRAND JUNCTION SUNNY     34  22  61 CALM      30.61F
MONTROSE       SUNNY     36  18  48 N3        30.60F
EAGLE          SUNNY     28  14  54 CALM      30.62F
RIFLE          SUNNY     30  17  58 SE6       30.59F WCI  24
DELTA          SUNNY     36  21  54 CALM      30.61F
NUCLA          SUNNY     36  21  55 CALM      30.58F
$$

COZ017>023-064>068-082000-
...SOUTHWEST COLORADO...

CITY           SKY/WX    TMP DP  RH WIND       PRES   REMARKS
DURANGO        SUNNY     35  19  52 S3        30.46F
CORTEZ         SUNNY     43  21  41 E3        30.48F
PAGOSA SPRINGS SUNNY     39  20  46 S5        30.46S
TELLURIDE      SUNNY     44  16  32 W10G16    30.54F
WOLF CREEK PAS SUNNY     32  12  43 N28G38    30.56F WCI  18
$$

COZ009-010-012-014-032>034-037-058>063-082000-
...CENTRAL COLORADO...

CITY           SKY/WX    TMP DP  RH WIND       PRES   REMARKS
ASPEN          SUNNY     35  15  44 CALM      30.54F
BUENA VISTA    CLOUDY    40  19  42 NW25G35   30.42F
COPPER MTN     CLOUDY    28  16  59 W15G23    30.54F WCI  17
BERTHOUD PASS  FAIR      16   5  62 NW36G43   30.47F WCI  -6
COTTONWOOD PAS CLOUDY    45   9  23 SW13G21   30.46F
GUNNISON       CLOUDY    14   3  62 E3        30.62S
KREMMLING      CLOUDY    32  16  51 CALM      30.57F
LEADVILLE      CLOUDY    33  15  47 N16G26    30.49F WCI  23
MONARCH PASS   CLOUDY    21  14  73 SW17G30   30.62F WCI   7
SALIDA         NOT AVBL
SUNLIGHT       SUNNY     30  23  74 N6          N/A  WCI  24
WILKERSON PASS CLOUDY    32  14  47 N14G28    30.47F WCI  22
$$

COZ069>075-082000-
...SAN LUIS VALLEY/SANGRE DE CRISTO MOUNTAINS...

CITY           SKY/WX    TMP DP  RH WIND       PRES   REMARKS
ALAMOSA        SUNNY     41  14  33 NW5       30.46F
LA VETA PASS   CLOUDY    37  14  38 SW5       30.46S
SAGUACHE       CLOUDY    43  18  36 NW6       30.48S
$$

COZ035-036-038>040-082000-
...NORTHERN COLORADO FRONT RANGE...

CITY           SKY/WX    TMP DP  RH WIND       PRES   REMARKS
DENVER INTL AP CLOUDY    39  21  48 SE5       30.37F
DMNS CITY PARK   N/A     50  18  28 W1G7      30.37F
AURORA         PTSUNNY   39  21  49 SE5       30.38F
FRONT RANGE AP MOSUNNY   37  21  52 SE3       30.37F
ERIE MUNI ARPT SUNNY     38  23  55 CALM      30.37F
BOULDER MUN AP SUNNY     37  21  52 CALM      30.36F
CENTENNIAL     PTSUNNY   39  20  46 E6        30.37F
BROOMFIELD     PTSUNNY   41  19  42 SE6       30.39S
FORT COLLINS   SUNNY     34  23  64 S6        30.38F WCI  29
LONGMONT       SUNNY     41  21  44 CALM      30.39F
$$

COZ041-046-047-076>085-087-088-082000-
...PIKES PEAK/PALMER DIVIDE AND SOUTHERN FOOTHILLS...

CITY           SKY/WX    TMP DP  RH WIND       PRES   REMARKS
COLO. SPRINGS  PTSUNNY   30  20  66 SE5       30.41F WCI  25
A. F. ACADEMY  SUNNY     37  22  55 S9        30.38F
SCHRIEVER AFB  NOT AVBL
ELLICOTT       NOT AVBL
FALCON         SUNNY     38  20  48 SE3       30.40S
FORT CARSON    SUNNY     32  23  70 S7        30.40F WCI  26
LIMON          SUNNY     34  22  61 NW7       30.37F WCI  28
MONUMENT HILL  SUNNY     34  19  55 CALM      30.39F
TRINIDAD       SUNNY     43  19  38 E8        30.42F
$$

COZ042>045-048>051-090-091-082000-
...NORTHEAST COLORADO...

CITY           SKY/WX    TMP DP  RH WIND       PRES   REMARKS
GREELEY ARPT   CLOUDY    28  21  74 CALM      30.40F
AKRON          MOSUNNY   31  20  63 NW15      30.35F WCI  20
BURLINGTON     CLOUDY    34  16  47 N18G25    30.35F WCI  23
WRAY           CLOUDY    37  19  46 NW16G24   30.38F
STERLING       CLOUDY    37  27  65 N14       30.36F
HOLYOKE        CLOUDY    37  19  48 NW13G20   30.35F
FORT MORGAN    SUNNY     35  22  60 W16       30.38F WCI  25
$$

COZ086-089-092>099-082000-
...SOUTHEAST COLORADO...

CITY           SKY/WX    TMP DP  RH WIND       PRES   REMARKS
PUEBLO         SUNNY     40  23  50 S5        30.43F
LA JUNTA       CLOUDY    42  25  50 W10       30.43F
LAMAR          SUNNY     43  24  47 W16       30.41F
SPRINGFIELD      N/A     44  18  35 N21G29    30.41F
$$



USA.gov is the U.S. government's official web portal to all federal, state and local government web resources and services.